Tenino, WA (98589)

5:04 PM PDT on October 24, 2014 (GMT -0700)
Tenino, WA | Change Station
CLOSE
Current Station
Personal Weather Station
Location: Tenino, WA
Elevation: 283 ft
Nearby Weather Stations

Elev 283 ft 46.86 °N, 122.85 °W | Updated 7 seconds ago

Partly Cloudy
Partly Cloudy
53.3 °F
Feels Like 53.3 °F
N
4.0
Wind Variable Wind from NE
Gusts 4.0 mph

Today
High -- | Low -- °F
--% Chance of Precip.
Yesterday
High -- | Low -- °F
Precip. -- in
7:42 AM 6:08 PM
New Moon, 1% visible
Pressure 29.88 in
Visibility 10.0 miles
Clouds Mostly Cloudy 12000 ft
Dew Point 50 °F
Humidity 89%
Rainfall 0.04 in
Snow Depth Not available.
UV 0 out of 12
Pollen .40 out of 12
PM2.5 Good
Flu Activity Sporadic
METAR KOLM 242354Z 01004KT 10SM BKN120 12/10 A2988 RMK AO2 SLP118 T01170100 10122 20094 58029

More Conditions Fewer Conditions

Pressure 29.88 in
Visibility 10.0 miles
Clouds Mostly Cloudy 12000 ft
Dew Point 50 °F
Humidity 89%
Rainfall 0.04 in
Snow Depth Not available.
UV 0 out of 12
Pollen .40 out of 12
PM2.5 Good
Flu Activity Sporadic
METAR KOLM 242354Z 01004KT 10SM BKN120 12/10 A2988 RMK AO2 SLP118 T01170100 10122 20094 58029

More Conditions Fewer Conditions

10-Day Weather Forecast

Almanac

Astronomy

Oct. 24, 2014 Rise Set
Actual Time 7:42 AM PDT 6:08 PM PDT
Civil Twilight 7:11 AM PDT 6:39 PM PDT
Nautical Twilight 6:35 AM PDT 7:14 PM PDT
Astronomical Twilight 6:00 AM PDT 7:49 PM PDT
Moon 8:29 AM PDT (10/24) 6:48 PM PDT (10/24)
Length of Visible Light 11h 28m
Length of Day
10h 25m
Tomorrow will be 3m 8s shorter.
New Moon, 1% of the Moon is Illuminated
Today
New Moon
Oct 30
First Quarter
Nov 6
Full
Nov 14
Last Quarter
Nov 22
New

Today's Extremes

State Highs State Lows

Community

WunderPhotos

Upload Photos

1,764,721 photos uploaded!

Nearby

Air Quality

  Air Quality AQ Index Pollutant
Yesterday Good
PM2.5
Current Good
PM2.5

Snow Depth

Station Depth Elevation
Swift Creek 1 in 3770 ft
June Lake 0 in 3340 ft
Spencer Meadow 0 in 3400 ft
Mount Gardner 0 in 3000 ft
Meadows Pass 0 in 3500 ft

Earthquake Activity

City Distance Mag. Time & Date
Birch Bay, Washington 136 miles 2.8 3:02 AM PDT
2014-10-24
Minimum magnitude displayed is 2.5.

Coastal Water Temperatures

Place Temperature
Port Townsend, WA 52.0 °F
Seattle, WA 55.0 °F
Friday Harbor, WA 51.1 °F
Tacoma, WA 54.0 °F

Nearby Weather Stations